Location: Unnamed
(51.6654°N, 39.1895°E)
Time: 17:43:25
(UTC+03:00)

ISS - Visible Passes

Search period start: 25 October 2021 00:00
Search period end: 04 November 2021 00:00
Orbit: 417 x 423 km, 51.6° (Epoch: 24 October)

Date Brightness Start Highest point End Pass type
(mag) Time Alt. Az. Time Alt. Az. Time Alt. Az.
25 Oct -2.3 05:44:55 10° SW 05:48:00 34° SSE 05:51:06 10° E visible
26 Oct -1.9 04:59:53 21° S 05:00:52 25° SSE 05:03:43 10° E visible
27 Oct -1.0 04:14:50 16° ESE 04:14:50 16° ESE 04:16:09 10° E visible
27 Oct -3.4 05:47:49 18° WSW 05:50:09 60° SSE 05:53:30 10° E visible
28 Oct -3.1 05:02:40 45° S 05:02:57 46° SSE 05:06:12 10° E visible
28 Oct -3.7 06:36:17 10° W 06:39:40 89° N 06:43:03 10° E visible
29 Oct -1.2 04:17:26 21° E 04:17:26 21° E 04:18:52 10° E visible
29 Oct -3.8 05:50:25 23° WSW 05:52:23 85° S 05:55:46 10° E visible
30 Oct -3.7 05:05:08 74° SSE 05:05:08 74° SSE 05:08:29 10° E visible
31 Oct -1.2 04:19:48 22° E 04:19:48 22° E 04:21:12 10° E visible
31 Oct -3.8 05:52:47 25° W 05:54:38 88° N 05:58:01 10° E visible
01 Nov -3.8 05:07:26 83° ENE 05:07:26 83° ENE 05:10:43 10° E visible
01 Nov -3.5 06:40:46 10° W 06:44:08 65° SSW 06:47:29 10° ESE visible
02 Nov -1.2 04:22:04 22° E 04:22:04 22° E 04:23:24 10° E visible
02 Nov -3.8 05:55:03 25° W 05:56:50 78° SSW 06:00:13 10° ESE visible
03 Nov -3.8 05:09:41 81° ESE 05:09:41 81° ESE 05:12:54 10° E visible
03 Nov -2.8 06:43:01 10° W 06:46:11 38° SSW 06:49:20 10° SE visible
